星链-5521 (STARLINK-5521 )

导读

STARLINK-5521是美国SpaceX公司星链星座的一员,于2023年5月10日发射升空,属于Starlink Group系列低轨互联网卫星,旨在为全球偏远欠发达等地区提供高速卫星互联网接入服务。星链星座通过部署大量低轨卫星,大幅降低通信传输时延,可为用户提供百兆级下载速率,目前该卫星运行在约550公里近地轨道,已稳定服役近3年,为全球网络覆盖提供支撑。

Basic Information
目录编号:
56471
目录名称:
STARLINK-5521
国际标识:
2023-064Z
轨道中心:
EARTH
卫星名称:
星链-5521
卫星全名:
星链-5521 (STARLINK-5521 )
卫星状态:
在轨 (已飞行1214 天)
发射日期:
2023-05-10 UTC
国别 :
美国 (US)
星等 :
--
Orbit Information
数据来源 国际轨道数据 AOE轨道数据
星历时间 2026-09-05T10:51:21+0800
9小时前
查看轨道信息
2026-08-30T08:00:00+0800
6天前
查看轨道信息
半长轴 6950.195km 6950.154km
偏心率 0.000266 0.0002598
轨道倾角 70.001° 69.999°
近地点辐角 269.004° 274.608°
升交点赤经 32.148° 47.577°
平近点角 91.082° 209.233°
近地点 570.209km 570.211km
远地点 573.907km 573.823km
周期 96.107分钟 96.106分钟
每日圈数 14.983294 14.983427
Detailed Information
固有亮度:
5
最大亮度:
2.5
卫星平台:
Starlink v1.5
覆盖范围:
全球
运营商:
太空探索技术公司
运营商所在国:
美国
制造商(研发单位):
太空探索技术公司
制造商所在国:
美国
使用方式:
暂无
Satellite Introduction
星链(Starlink)计划是由太空探索技术公司(SpaceX)提出的一个巨型低轨卫星互联网星座项目,计划在2019年至2024年间在太空搭建由约1.2万颗卫星组成的“星链”网络,其中1584颗将部署在地球上空550千米处的近地轨道,并从2020年开始工作。该卫星仍在工作。
2D Orbit Map
3D Orbit Map
Orbit Altitude Analysis Chart
Orbit Inclination Analysis Chart
Orbit Comprehensive Analysis Chart
View Comprehensive Chart
Conjunction Data List
Event ID Objects TCA Miss Dist (km) Collision Risk Probability Collision Risk Index (CRI) Action
CDM_260907-040604-460905-647123
2026-09-07T
04:06:33+0000
2.044 km
极远距离
2.520666E-6 低风险 0.43
CDM_260829-043805-647106-678622
2026-08-29T
04:38:21+0000
2.220 km
极远距离
1.938051E-6 低风险 0.41
CDM_260905-155804-367805-647125
2026-09-05T
15:58:57+0000
2.156 km
极远距离
1.62751E-6 低风险 0.39